Home   Weather   Huntsville   Past weeks
Flag for USA

Past Weather in Huntsville, Alabama, USA — Yesterday and Last 2 Weeks

Now
55 °F

More clouds than sun.


Feels Like: 53 °F
Forecast: 55 / 44 °F
Wind: 7 mph from South

Location: Huntsville International / Jones Field

Current Time: Dec 6, 2019 at 12:41:06 pm

Latest Report: Dec 6, 2019 at 11:53 am


Visibility: 10 mi

Pressure: 30.10 "Hg

Humidity: 67%

Dew Point: 44 °F

Location of HuntsvilleLocation

Past Weather in Huntsville — Graph

°F

Huntsville Temperature Yesterday

Maximum temperature yesterday: 64 °F (at 2:53 pm)
Minimum temperature yesterday: 35 °F (at 2:53 am)
Average temperature yesterday: 49 °F

High & Low Weather Summary for the Past Weeks

 TemperatureHumidityPressure
High69 °F (Nov 30, 11:53 am)100% (Nov 30, 11:33 pm)30.41 "Hg (Nov 30, 11:33 pm)
Low29 °F (Dec 4, 5:53 am)30% (Dec 5, 2:53 pm)29.60 "Hg (Nov 30, 11:12 pm)
Average51 °F72%29.98 "Hg
* Reported Nov 21 10:53 am — Dec 6 10:53 am, Huntsville. Weather by CustomWeather, © 2019

Note: Actual official high and low records may vary slightly from our data, if they occured in-between our weather recording intervals... More about our weather records

Huntsville Weather History for the Previous 24 Hours

Scroll right to see more
 ConditionsComfort  
Time TempWeatherWind HumidityBarometerVisibility
10:53 am
Fri, Dec 6
53 °FLight rain. Cloudy.3 mph64%30.14 "Hg10 mi
9:53 am52 °FMore clouds than sun.5 mph69%30.16 "Hg10 mi
8:53 am51 °FOvercast.5 mph69%30.15 "Hg10 mi
7:53 am49 °FOvercast.5 mph71%30.13 "Hg10 mi
6:53 am47 °FLight rain. Mostly cloudy.8 mph77%30.10 "Hg10 mi
5:53 am49 °FLight rain. Overcast.3 mph61%30.13 "Hg10 mi
4:53 am47 °FPassing clouds.6 mph66%30.13 "Hg10 mi
3:53 am48 °FPassing clouds.3 mph61%30.12 "Hg10 mi
2:53 am47 °FPassing clouds.No wind64%30.13 "Hg10 mi
1:53 am49 °FPassing clouds.5 mph59%30.12 "Hg10 mi
12:53 am47 °FPassing clouds.6 mph64%30.11 "Hg10 mi
11:53 pm
Thu, Dec 5
46 °FPassing clouds.7 mph66%30.12 "Hg10 mi
10:53 pm47 °FPassing clouds.7 mph69%30.12 "Hg10 mi
9:53 pm49 °FPassing clouds.5 mph64%30.13 "Hg10 mi
8:53 pm50 °FPassing clouds.5 mph57%30.14 "Hg10 mi
7:53 pm51 °FPassing clouds.3 mph61%30.14 "Hg10 mi
6:53 pm54 °FPartly cloudy.No wind47%30.13 "Hg10 mi
5:53 pm55 °FPassing clouds.No wind45%30.11 "Hg10 mi
4:53 pm55 °FPassing clouds.3 mph47%30.10 "Hg10 mi
3:53 pm60 °FPassing clouds.5 mph36%30.10 "Hg10 mi
2:53 pm64 °FPassing clouds.3 mph30%30.09 "Hg10 mi
1:53 pm63 °FScattered clouds.No wind31%30.10 "Hg10 mi
12:53 pm61 °FPartly sunny.No wind35%30.12 "Hg10 mi
Weather by CustomWeather, © 2019

See weather overview

Advertising